Home > Weather > Sunrise Manor > Past weeks

Flag for USA Past Weather in Sunrise Manor, Nevada, USA — Yesterday and Last 2 Weeks

Now
96 °F

Sunny.


Feels Like: 91 °F
Forecast: 71 / 97 °F
Wind: 1 mph from Southeast

Location: Nellis Air Force Base

Current Time: May 31, 2016 at 4:53:38 PM

Latest Report: May 31, 2016 at 3:58 PM


Visibility: 10 mi

Pressure: 29.66 "Hg (27.90 "Hg at 555m altitude)

Humidity: 12%

Dew Point: 36 °F

Location of Sunrise ManorLocation

Past Weather in Sunrise Manor — Graph

°F

Sunrise Manor Temperature Yesterday

Maximum temperature yesterday: 94 °F (at 2:58 PM)
Minimum temperature yesterday: 65 °F (at 5:58 AM)
Average temperature yesterday: 82 °F

High & Low Weather Summary for the Past Weeks

 TemperatureHumidityPressure
High97 °F (May 31, 9:58 AM)55% (May 17, 9:58 AM)29.93 "Hg (May 17, 9:58 AM)
Low58 °F (May 25, 5:58 AM)7% (May 29, 5:58 PM)29.43 "Hg (May 19, 7:58 PM)
Average76 °F22%29.75 "Hg
* Reported May 16 2:58 PM — May 31 2:58 PM, Sunrise Manor, Weather by CustomWeather, © 2016

Note: Actual official high and low records may vary slightly from our data, if they occured in-between our weather recording intervals... More about our weather records

Advertising

Sunrise Manor Weather History for the Previous 24 Hours

Scroll right to see more
 ConditionsComfort  
Time TempWeatherWind HumidityBarometerVisibility
2:58 PM
Tue, May 31
96 °FSunny.7 mph12%29.68 "Hg10 mi
1:58 PM95 °FSunny.3 mph12%29.71 "Hg10 mi
12:58 PM94 °FSunny.7 mph13%29.73 "Hg10 mi
11:58 AM92 °FSunny.7 mph14%29.75 "Hg10 mi
10:58 AM92 °FSunny.9 mph14%29.77 "Hg10 mi
9:58 AM97 °FSunny.13 mph12%29.82 "Hg7 mi
8:58 AM89 °FSunny.12 mph15%29.79 "Hg10 mi
7:58 AM82 °FSunny.No wind19%29.79 "Hg10 mi
6:58 AM77 °FSunny.2 mph22%29.79 "Hg10 mi
5:58 AM73 °FClear.2 mph24%29.76 "Hg10 mi
4:58 AM78 °FClear.1 mph20%29.75 "Hg10 mi
3:58 AM79 °FClear.10 mph20%29.73 "Hg10 mi
2:58 AM79 °FClear.9 mph19%29.71 "Hg10 mi
1:58 AM79 °FClear.7 mph19%29.72 "Hg10 mi
12:58 AM81 °FOvercast.7 mph17%29.70 "Hg10 mi
11:58 PM
Mon, May 30
81 °FPassing clouds.2 mph17%29.72 "Hg10 mi
10:58 PM82 °FPassing clouds.3 mph15%29.72 "Hg10 mi
9:58 PM85 °FPassing clouds.9 mph14%29.72 "Hg10 mi
8:58 PM87 °FPassing clouds.3 mph13%29.71 "Hg10 mi
7:58 PM91 °FSunny.5 mph11%29.70 "Hg10 mi
6:58 PM93 °FPassing clouds.6 mph10%29.70 "Hg10 mi
5:58 PM93 °FSunny.No wind11%29.72 "Hg10 mi
4:58 PM94 °FHaze.24 mph11%29.75 "Hg3 mi
Weather by CustomWeather, © 2016

See weather overviewHow to use our weather pages